| time (UTC) | temp F | wind direction | speed knots | gust knots | rain 1hr in | rain 24hr in | rain mn in | humidity % | barometer mb |
| 20260904210014 | 86 | 46 | 0.0 | 2.6 | 0.00 | 0.12 | 0.12 | 87 | 1013.2 |
| 20260904205511 | 86 | 53 | 0.0 | 2.6 | 0.00 | 0.12 | 0.12 | 88 | 1013.2 |
| 20260904205008 | 86 | 52 | 1.7 | 3.5 | 0.00 | 0.12 | 0.12 | 86 | 1013.2 |
| 20260904204434 | 86 | 65 | 0.9 | 3.5 | 0.00 | 0.12 | 0.12 | 87 | 1013.2 |
| 20260904203931 | 85 | 75 | 0.9 | 3.5 | 0.00 | 0.12 | 0.12 | 88 | 1013.2 |
| 20260904203408 | 84 | 28 | 1.7 | 3.5 | 0.00 | 0.12 | 0.12 | 89 | 1013.2 |
| 20260904202904 | 84 | 37 | 0.9 | 2.6 | 0.00 | 0.12 | 0.12 | 91 | 1013.2 |
| 20260904202401 | 84 | 108 | 0.9 | 2.6 | 0.00 | 0.12 | 0.12 | 91 | 1013.5 |
| 20260904201858 | 83 | 108 | 0.0 | 2.6 | 0.00 | 0.12 | 0.12 | 91 | 1013.5 |
| 20260904201353 | 82 | 108 | 0.9 | 2.6 | 0.00 | 0.13 | 0.12 | 89 | 1013.5 |
| 20260904200818 | 82 | 227 | 0.9 | 1.7 | 0.01 | 0.13 | 0.12 | 90 | 1013.9 |
| 20260904200256 | 82 | 226 | 0.0 | 1.7 | 0.03 | 0.15 | 0.12 | 90 | 1013.5 |
| 20260904195737 | 82 | 226 | 0.0 | 2.6 | 0.05 | 0.19 | 0.12 | 89 | 1013.5 |
| 20260904195234 | 83 | 226 | 0.0 | 2.6 | 0.08 | 0.22 | 0.12 | 88 | 1013.5 |
| 20260904194700 | 83 | 226 | 0.0 | 2.6 | 0.12 | 0.25 | 0.12 | 88 | 1013.9 |
| 20260904194139 | 83 | 226 | 0.9 | 5.2 | 0.12 | 0.26 | 0.12 | 91 | 1013.9 |
| 20260904193636 | 83 | 225 | 0.0 | 5.2 | 0.12 | 0.28 | 0.12 | 91 | 1013.9 |
| 20260904193102 | 82 | 225 | 0.0 | 9.6 | 0.12 | 0.28 | 0.12 | 90 | 1013.9 |
| 20260904192559 | 81 | 260 | 2.6 | 9.6 | 0.12 | 0.28 | 0.12 | 90 | 1014.2 |
| 20260904192056 | 81 | 264 | 1.7 | 9.6 | 0.12 | 0.28 | 0.12 | 90 | 1014.2 |
| 20260904191521 | 81 | 256 | 4.3 | 9.6 | 0.12 | 0.28 | 0.12 | 88 | 1014.2 |
| 20260904191018 | 82 | 155 | 0.9 | 2.6 | 0.12 | 0.28 | 0.12 | 89 | 1014.6 |
| 20260904190438 | 84 | 119 | 0.9 | 1.7 | 0.10 | 0.26 | 0.10 | 87 | 1014.6 |
| 20260904185935 | 86 | 82 | 0.9 | 1.7 | 0.07 | 0.23 | 0.07 | 85 | 1014.6 |
| 20260904185432 | 88 | 82 | 0.9 | 3.5 | 0.05 | 0.21 | 0.05 | 84 | 1014.6 |
| 20260904184858 | 90 | 82 | 0.9 | 4.3 | 0.01 | 0.17 | 0.01 | 80 | 1014.6 |
| 20260904184323 | 91 | 81 | 0.9 | 4.3 | 0.00 | 0.16 | 0.00 | 77 | 1014.6 |
| 20260904183820 | 92 | 81 | 0.0 | 4.3 | 0.00 | 0.16 | 0.00 | 75 | 1014.6 |
| 20260904183316 | 93 | 62 | 1.7 | 4.3 | 0.00 | 0.16 | 0.00 | 74 | 1014.6 |
| 20260904182735 | 93 | 346 | 0.9 | 4.3 | 0.00 | 0.16 | 0.00 | 74 | 1014.6 |
| 20260904182231 | 93 | 22 | 1.7 | 4.3 | 0.00 | 0.16 | 0.00 | 72 | 1014.6 |
| 20260904181725 | 93 | 6 | 0.9 | 4.3 | 0.00 | 0.16 | 0.00 | 75 | 1014.6 |
| 20260904181134 | 92 | 49 | 1.7 | 5.2 | 0.00 | 0.16 | 0.00 | 74 | 1014.9 |
| 20260904180551 | 91 | 26 | 1.7 | 5.2 | 0.00 | 0.16 | 0.00 | 77 | 1014.9 |
| 20260904180048 | 90 | 81 | 1.7 | 5.2 | 0.00 | 0.16 | 0.00 | 78 | 1014.9 |
| 20260904175545 | 90 | 42 | 0.9 | 4.3 | 0.00 | 0.16 | 0.00 | 76 | 1014.9 |
| 20260904175041 | 90 | 23 | 1.7 | 4.3 | 0.00 | 0.16 | 0.00 | 76 | 1015.2 |
| 20260904174519 | 91 | 62 | 1.7 | 5.2 | 0.00 | 0.16 | 0.00 | 75 | 1015.2 |
| 20260904174001 | 92 | 67 | 1.7 | 5.2 | 0.00 | 0.16 | 0.00 | 74 | 1015.2 |
| 20260904173458 | 92 | 43 | 1.7 | 4.3 | 0.00 | 0.16 | 0.00 | 75 | 1015.2 |
| 20260904172955 | 92 | 25 | 1.7 | 3.5 | 0.00 | 0.16 | 0.00 | 75 | 1014.9 |
| 20260904172420 | 93 | 59 | 0.9 | 3.5 | 0.00 | 0.16 | 0.00 | 76 | 1014.9 |
| 20260904171858 | 93 | 29 | 1.7 | 3.5 | 0.00 | 0.16 | 0.00 | 76 | 1015.2 |
| 20260904171253 | 92 | 259 | 0.9 | 4.3 | 0.00 | 0.16 | 0.00 | 81 | 1015.2 |
| 20260904170735 | 91 | 249 | 0.9 | 4.3 | 0.00 | 0.16 | 0.00 | 79 | 1015.2 |
| 20260904170232 | 90 | 247 | 1.7 | 4.3 | 0.00 | 0.16 | 0.00 | 83 | 1015.2 |
| 20260904165729 | 89 | 252 | 1.7 | 3.5 | 0.00 | 0.16 | 0.00 | 82 | 1015.2 |
| 20260904165155 | 88 | 16 | 0.9 | 1.7 | 0.00 | 0.16 | 0.00 | 84 | 1015.2 |
| 20260904164652 | 87 | 16 | 0.9 | 1.7 | 0.00 | 0.16 | 0.00 | 84 | 1015.6 |
| 20260904164148 | 87 | 17 | 0.9 | 0.9 | 0.00 | 0.16 | 0.00 | 86 | 1015.6 |
| 20260904163646 | 86 | 17 | 0.0 | 0.9 | 0.00 | 0.16 | 0.00 | 86 | 1015.6 |
| 20260904163142 | 86 | 17 | 0.0 | 1.7 | 0.00 | 0.16 | 0.00 | 86 | 1015.6 |
| 20260904162639 | 86 | 17 | 0.0 | 2.6 | 0.00 | 0.16 | 0.00 | 86 | 1015.6 |
| 20260904162136 | 85 | 17 | 0.0 | 2.6 | 0.00 | 0.16 | 0.00 | 86 | 1015.6 |
| 20260904161633 | 84 | 17 | 0.0 | 2.6 | 0.00 | 0.16 | 0.00 | 86 | 1015.6 |
| 20260904161111 | 84 | 48 | 0.9 | 2.6 | 0.00 | 0.16 | 0.00 | 86 | 1015.6 |
| 20260904160608 | 83 | 275 | 0.9 | 0.9 | 0.00 | 0.16 | 0.00 | 89 | 1015.2 |
| 20260904160046 | 83 | 327 | 0.9 | 0.9 | 0.00 | 0.16 | 0.00 | 89 | 1015.2 |
| 20260904155511 | 83 | 327 | 0.0 | 1.7 | 0.00 | 0.16 | 0.00 | 88 | 1015.2 |
| 20260904155007 | 83 | 39 | 0.9 | 2.6 | 0.00 | 0.16 | 0.00 | 89 | 1015.2 |
| 20260904154501 | 83 | 35 | 0.9 | 2.6 | 0.00 | 0.16 | 0.00 | 89 | 1015.2 |
| 20260904153955 | 83 | 14 | 0.9 | 2.6 | 0.00 | 0.16 | 0.00 | 89 | 1015.6 |
| 20260904153420 | 83 | 208 | 0.0 | 0.9 | 0.00 | 0.16 | 0.00 | 90 | 1015.6 |
| 20260904152918 | 83 | 208 | 0.0 | 0.9 | 0.00 | 0.16 | 0.00 | 90 | 1015.2 |
| 20260904152415 | 83 | 30 | 0.9 | 1.7 | 0.00 | 0.16 | 0.00 | 91 | 1015.2 |
| 20260904151853 | 83 | 53 | 0.9 | 1.7 | 0.00 | 0.16 | 0.00 | 91 | 1015.2 |
| 20260904151318 | 83 | 56 | 0.0 | 1.7 | 0.00 | 0.16 | 0.00 | 91 | 1014.9 |
| 20260904150711 | 83 | 34 | 0.0 | 1.7 | 0.00 | 0.16 | 0.00 | 91 | 1014.6 |
| 20260904150149 | 83 | 33 | 0.0 | 2.6 | 0.00 | 0.16 | 0.00 | 91 | 1014.9 |
| 20260904145646 | 82 | 33 | 0.9 | 4.3 | 0.00 | 0.16 | 0.00 | 91 | 1014.9 |
| 20260904145143 | 82 | 33 | 0.9 | 4.3 | 0.00 | 0.16 | 0.00 | 91 | 1014.9 |
| 20260904144640 | 82 | 17 | 1.7 | 4.3 | 0.00 | 0.16 | 0.00 | 92 | 1014.9 |
| 20260904144137 | 82 | 54 | 1.7 | 4.3 | 0.00 | 0.16 | 0.00 | 92 | 1014.9 |
| 20260904143615 | 82 | 86 | 0.9 | 4.3 | 0.00 | 0.16 | 0.00 | 92 | 1014.9 |
| 20260904142938 | 82 | 66 | 1.7 | 4.3 | 0.00 | 0.16 | 0.00 | 93 | 1014.9 |
| 20260904142432 | 82 | 54 | 0.9 | 4.3 | 0.00 | 0.16 | 0.00 | 94 | 1014.6 |
| 20260904141859 | 81 | 17 | 0.0 | 0.9 | 0.00 | 0.16 | 0.00 | 94 | 1014.6 |
| 20260904141216 | 81 | 17 | 0.0 | 0.9 | 0.00 | 0.16 | 0.00 | 94 | 1014.6 |
| 20260904140712 | 81 | 17 | 0.0 | 0.9 | 0.00 | 0.16 | 0.00 | 94 | 1014.6 |
| 20260904140209 | 80 | 17 | 0.9 | 0.9 | 0.00 | 0.16 | 0.00 | 94 | 1014.6 |
| 20260904135647 | 80 | 17 | 0.0 | 0.0 | 0.00 | 0.16 | 0.00 | 94 | 1014.6 |
| 20260904135144 | 80 | 17 | 0.0 | 0.0 | 0.00 | 0.16 | 0.00 | 94 | 1014.6 |
| 20260904134642 | 80 | 17 | 0.0 | 0.0 | 0.00 | 0.16 | 0.00 | 94 | 1014.6 |
| 20260904134138 | 80 | 17 | 0.0 | 0.0 | 0.00 | 0.16 | 0.00 | 94 | 1014.2 |
| 20260904133532 | 80 | 17 | 0.0 | 0.0 | 0.00 | 0.16 | 0.00 | 94 | 1014.2 |
| 20260904133029 | 79 | 17 | 0.0 | 0.0 | 0.00 | 0.16 | 0.00 | 94 | 1014.6 |
| 20260904132526 | 79 | 17 | 0.0 | 0.0 | 0.00 | 0.16 | 0.00 | 94 | 1014.2 |
| 20260904132024 | 79 | 17 | 0.0 | 0.0 | 0.00 | 0.16 | 0.00 | 94 | 1014.2 |
| 20260904131501 | 80 | 17 | 0.0 | 0.0 | 0.00 | 0.16 | 0.00 | 94 | 1014.2 |
| 20260904130959 | 80 | 17 | 0.0 | 0.0 | 0.00 | 0.16 | 0.00 | 94 | 1014.2 |
| 20260904130456 | 80 | 17 | 0.0 | 0.0 | 0.00 | 0.16 | 0.00 | 95 | 1014.2 |
| 20260904125916 | 80 | 17 | 0.0 | 0.0 | 0.00 | 0.16 | 0.00 | 95 | 1014.2 |
| 20260904125413 | 80 | 12 | 0.0 | 0.0 | 0.00 | 0.16 | 0.00 | 95 | 1014.2 |
| 20260904124910 | 80 | 12 | 0.0 | 0.0 | 0.00 | 0.16 | 0.00 | 95 | 1014.2 |
| 20260904124407 | 80 | 12 | 0.0 | 0.0 | 0.00 | 0.16 | 0.00 | 95 | 1013.9 |
| 20260904123903 | 80 | 12 | 0.0 | 0.0 | 0.00 | 0.16 | 0.00 | 95 | 1013.9 |
| 20260904123400 | 80 | 12 | 0.0 | 0.0 | 0.00 | 0.16 | 0.00 | 95 | 1013.9 |
| 20260904122752 | 80 | 12 | 0.0 | 0.0 | 0.00 | 0.16 | 0.00 | 95 | 1013.5 |
| 20260904122249 | 80 | 12 | 0.0 | 0.0 | 0.00 | 0.16 | 0.00 | 95 | 1013.5 |
| 20260904121745 | 80 | 12 | 0.0 | 0.0 | 0.00 | 0.16 | 0.00 | 95 | 1013.5 |
| 20260904121208 | 80 | 12 | 0.0 | 0.0 | 0.00 | 0.16 | 0.00 | 95 | 1013.5 |
| 20260904120705 | 80 | 12 | 0.0 | 0.0 | 0.00 | 0.16 | 0.00 | 95 | 1013.5 |
| 20260904120140 | 80 | 12 | 0.0 | 0.0 | 0.00 | 0.16 | 0.00 | 94 | 1013.5 |
| 20260904115615 | 80 | 12 | 0.0 | 0.0 | 0.00 | 0.16 | 0.00 | 95 | 1013.2 |
| 20260904115111 | 80 | 12 | 0.0 | 0.0 | 0.00 | 0.16 | 0.00 | 95 | 1013.5 |
| 20260904114537 | 80 | 12 | 0.0 | 0.0 | 0.00 | 0.16 | 0.00 | 95 | 1013.5 |
| 20260904114034 | 80 | 12 | 0.0 | 0.0 | 0.00 | 0.16 | 0.00 | 95 | 1013.5 |
| 20260904113531 | 80 | 12 | 0.0 | 0.0 | 0.00 | 0.16 | 0.00 | 94 | 1013.2 |
| 20260904113028 | 80 | 12 | 0.0 | 0.0 | 0.00 | 0.16 | 0.00 | 95 | 1013.5 |
| 20260904112524 | 80 | 12 | 0.0 | 0.0 | 0.00 | 0.16 | 0.00 | 94 | 1013.5 |
| 20260904112022 | 80 | 12 | 0.0 | 0.0 | 0.00 | 0.16 | 0.00 | 94 | 1013.2 |
| 20260904111519 | 80 | 12 | 0.0 | 0.0 | 0.00 | 0.16 | 0.00 | 95 | 1013.5 |
| 20260904110944 | 80 | 12 | 0.0 | 0.0 | 0.00 | 0.16 | 0.00 | 94 | 1013.5 |
| 20260904110441 | 80 | 12 | 0.0 | 0.0 | 0.00 | 0.16 | 0.00 | 94 | 1013.5 |
| 20260904105900 | 80 | 12 | 0.0 | 0.0 | 0.00 | 0.16 | 0.00 | 94 | 1013.5 |
| 20260904105358 | 80 | 12 | 0.0 | 0.0 | 0.00 | 0.16 | 0.00 | 94 | 1013.5 |
| 20260904104855 | 80 | 12 | 0.0 | 0.0 | 0.00 | 0.16 | 0.00 | 94 | 1013.5 |
| 20260904104351 | 80 | 12 | 0.0 | 0.0 | 0.00 | 0.16 | 0.00 | 94 | 1013.5 |
| 20260904103817 | 80 | 12 | 0.0 | 0.0 | 0.00 | 0.16 | 0.00 | 94 | 1013.5 |
| 20260904103313 | 80 | 12 | 0.0 | 0.0 | 0.00 | 0.16 | 0.00 | 94 | 1013.2 |
| 20260904102810 | 80 | 12 | 0.0 | 0.0 | 0.00 | 0.16 | 0.00 | 94 | 1013.2 |
| 20260904102307 | 80 | 12 | 0.0 | 0.0 | 0.00 | 0.16 | 0.00 | 94 | 1013.2 |
| 20260904101732 | 80 | 12 | 0.0 | 0.0 | 0.00 | 0.16 | 0.00 | 94 | 1013.2 |
| 20260904101229 | 80 | 12 | 0.0 | 0.0 | 0.00 | 0.16 | 0.00 | 94 | 1013.2 |
| 20260904100726 | 80 | 12 | 0.0 | 0.0 | 0.00 | 0.16 | 0.00 | 94 | 1013.2 |
| 20260904100121 | 80 | 12 | 0.0 | 0.0 | 0.00 | 0.16 | 0.00 | 94 | 1012.9 |
| 20260904095616 | 80 | 12 | 0.0 | 0.0 | 0.00 | 0.16 | 0.00 | 94 | 1012.9 |
| 20260904095037 | 80 | 12 | 0.0 | 0.0 | 0.00 | 0.16 | 0.00 | 94 | 1012.9 |
| 20260904094534 | 80 | 12 | 0.0 | 0.0 | 0.00 | 0.16 | 0.00 | 94 | 1012.9 |
| 20260904094000 | 80 | 13 | 0.0 | 0.0 | 0.00 | 0.16 | 0.00 | 94 | 1012.9 |
| 20260904093426 | 80 | 13 | 0.0 | 0.0 | 0.00 | 0.16 | 0.00 | 94 | 1012.9 |
| 20260904092904 | 80 | 12 | 0.0 | 0.0 | 0.00 | 0.16 | 0.00 | 94 | 1012.9 |
| 20260904092401 | 80 | 12 | 0.0 | 0.0 | 0.00 | 0.16 | 0.00 | 94 | 1012.9 |
| 20260904091857 | 80 | 12 | 0.0 | 0.0 | 0.00 | 0.16 | 0.00 | 94 | 1012.9 |
| 20260904091323 | 80 | 12 | 0.0 | 0.0 | 0.00 | 0.16 | 0.00 | 94 | 1012.9 |
| 20260904090658 | 80 | 12 | 0.0 | 0.0 | 0.00 | 0.16 | 0.00 | 94 | 1012.9 |
| 20260904090155 | 80 | 12 | 0.0 | 0.0 | 0.00 | 0.16 | 0.00 | 94 | 1012.9 |
| 20260904085652 | 80 | 12 | 0.0 | 0.0 | 0.00 | 0.16 | 0.00 | 94 | 1012.9 |
| 20260904085149 | 80 | 12 | 0.0 | 0.0 | 0.00 | 0.16 | 0.00 | 94 | 1012.9 |
| 20260904084647 | 80 | 12 | 0.0 | 0.0 | 0.00 | 0.16 | 0.00 | 94 | 1012.5 |
| 20260904084143 | 80 | 12 | 0.0 | 0.0 | 0.00 | 0.16 | 0.00 | 94 | 1012.5 |
| 20260904083640 | 80 | 12 | 0.0 | 0.0 | 0.00 | 0.16 | 0.00 | 94 | 1012.9 |
| 20260904083106 | 80 | 12 | 0.0 | 0.0 | 0.00 | 0.16 | 0.00 | 94 | 1012.9 |
| 20260904082602 | 80 | 12 | 0.0 | 0.0 | 0.00 | 0.16 | 0.00 | 94 | 1012.9 |
| 20260904082041 | 80 | 12 | 0.0 | 0.0 | 0.00 | 0.16 | 0.00 | 94 | 1012.9 |
| 20260904081538 | 80 | 12 | 0.0 | 0.0 | 0.00 | 0.16 | 0.00 | 94 | 1012.9 |
| 20260904081035 | 80 | 13 | 0.0 | 0.0 | 0.00 | 0.16 | 0.00 | 94 | 1012.9 |
| 20260904080532 | 80 | 12 | 0.0 | 0.0 | 0.00 | 0.16 | 0.00 | 94 | 1012.9 |
| 20260904075936 | 80 | 13 | 0.0 | 0.0 | 0.00 | 0.16 | 0.00 | 94 | 1012.9 |
| 20260904075423 | 80 | 12 | 0.0 | 0.0 | 0.00 | 0.16 | 0.00 | 94 | 1012.9 |
| 20260904074906 | 80 | 12 | 0.0 | 0.0 | 0.00 | 0.16 | 0.00 | 94 | 1012.9 |
| 20260904074403 | 80 | 12 | 0.0 | 0.0 | 0.00 | 0.16 | 0.00 | 94 | 1012.9 |
| 20260904073859 | 80 | 12 | 0.0 | 0.0 | 0.00 | 0.16 | 0.00 | 94 | 1012.9 |
| 20260904073325 | 80 | 12 | 0.0 | 0.0 | 0.00 | 0.16 | 0.00 | 94 | 1012.9 |
| 20260904072804 | 80 | 12 | 0.0 | 0.0 | 0.00 | 0.16 | 0.00 | 94 | 1012.9 |
| 20260904072300 | 80 | 13 | 0.0 | 0.0 | 0.00 | 0.16 | 0.00 | 94 | 1012.9 |
| 20260904071757 | 80 | 12 | 0.0 | 0.0 | 0.00 | 0.16 | 0.00 | 94 | 1012.9 |
| 20260904071254 | 80 | 12 | 0.0 | 0.0 | 0.00 | 0.16 | 0.00 | 94 | 1012.9 |
| 20260904070719 | 80 | 12 | 0.0 | 0.0 | 0.00 | 0.16 | 0.00 | 94 | 1013.2 |
| 20260904070217 | 80 | 12 | 0.0 | 0.0 | 0.00 | 0.16 | 0.00 | 94 | 1013.2 |
| 20260904065655 | 80 | 12 | 0.0 | 0.0 | 0.00 | 0.16 | 0.00 | 94 | 1012.9 |
| 20260904065152 | 80 | 12 | 0.0 | 0.0 | 0.00 | 0.16 | 0.00 | 94 | 1013.2 |
| 20260904064649 | 80 | 12 | 0.0 | 0.0 | 0.00 | 0.16 | 0.00 | 94 | 1013.2 |
| 20260904064115 | 80 | 12 | 0.0 | 0.0 | 0.00 | 0.16 | 0.00 | 94 | 1013.2 |
| 20260904063612 | 80 | 12 | 0.0 | 0.0 | 0.00 | 0.16 | 0.00 | 94 | 1013.2 |
| 20260904063037 | 80 | 13 | 0.0 | 0.0 | 0.00 | 0.16 | 0.00 | 94 | 1012.9 |
| 20260904062533 | 80 | 12 | 0.0 | 0.0 | 0.00 | 0.16 | 0.00 | 94 | 1012.9 |
| 20260904062030 | 80 | 12 | 0.0 | 0.0 | 0.00 | 0.16 | 0.00 | 94 | 1013.2 |
| 20260904061456 | 80 | 13 | 0.0 | 0.0 | 0.00 | 0.16 | 0.00 | 94 | 1013.2 |
| 20260904060953 | 81 | 12 | 0.0 | 0.0 | 0.00 | 0.16 | 0.00 | 94 | 1013.2 |
| 20260904060449 | 81 | 12 | 0.0 | 0.0 | 0.00 | 0.16 | 0.00 | 94 | 1013.2 |
| 20260904055946 | 81 | 12 | 0.0 | 0.0 | 0.00 | 0.16 | 0.00 | 94 | 1013.2 |
| 20260904055442 | 81 | 13 | 0.0 | 0.0 | 0.00 | 0.16 | 0.00 | 94 | 1013.2 |
| 20260904054920 | 81 | 12 | 0.0 | 0.0 | 0.00 | 0.16 | 0.00 | 94 | 1013.2 |
| 20260904054417 | 81 | 12 | 0.0 | 0.0 | 0.00 | 0.16 | 0.00 | 94 | 1013.2 |
| 20260904053842 | 81 | 12 | 0.0 | 0.0 | 0.00 | 0.16 | 0.00 | 94 | 1013.2 |
| 20260904053339 | 81 | 12 | 0.0 | 0.0 | 0.00 | 0.16 | 0.00 | 94 | 1013.2 |
| 20260904052837 | 81 | 13 | 0.0 | 0.0 | 0.00 | 0.16 | 0.00 | 94 | 1013.2 |
| 20260904052334 | 81 | 12 | 0.0 | 0.0 | 0.00 | 0.16 | 0.00 | 94 | 1013.2 |
| 20260904051831 | 81 | 13 | 0.0 | 0.0 | 0.00 | 0.16 | 0.16 | 94 | 1013.2 |
| 20260904051328 | 81 | 13 | 0.0 | 0.0 | 0.00 | 0.16 | 0.16 | 94 | 1013.2 |
| 20260904050825 | 81 | 12 | 0.0 | 0.0 | 0.00 | 0.16 | 0.16 | 94 | 1013.2 |
| 20260904050322 | 81 | 12 | 0.0 | 0.0 | 0.00 | 0.16 | 0.16 | 94 | 1013.2 |
| 20260904045819 | 81 | 13 | 0.0 | 0.0 | 0.00 | 0.16 | 0.16 | 94 | 1013.2 |
| 20260904045245 | 81 | 12 | 0.0 | 0.0 | 0.00 | 0.16 | 0.16 | 94 | 1013.2 |
| 20260904044741 | 81 | 12 | 0.0 | 0.0 | 0.00 | 0.16 | 0.16 | 94 | 1013.2 |
| 20260904044238 | 81 | 12 | 0.0 | 0.0 | 0.00 | 0.16 | 0.16 | 94 | 1013.2 |
| 20260904043735 | 81 | 12 | 0.0 | 0.0 | 0.00 | 0.16 | 0.16 | 94 | 1013.2 |
| 20260904043231 | 81 | 13 | 0.0 | 0.0 | 0.00 | 0.16 | 0.16 | 94 | 1013.2 |
| 20260904042727 | 81 | 12 | 0.0 | 0.0 | 0.00 | 0.16 | 0.16 | 94 | 1013.2 |
| 20260904042224 | 81 | 12 | 0.0 | 0.0 | 0.00 | 0.16 | 0.16 | 94 | 1013.2 |
| 20260904041717 | 81 | 13 | 0.0 | 0.0 | 0.00 | 0.16 | 0.16 | 94 | 1013.2 |
| 20260904041210 | 81 | 12 | 0.0 | 0.0 | 0.00 | 0.16 | 0.16 | 94 | 1013.2 |
| 20260904040657 | 81 | 12 | 0.0 | 0.0 | 0.00 | 0.16 | 0.16 | 94 | 1013.2 |
| 20260904040143 | 81 | 12 | 0.0 | 0.0 | 0.00 | 0.16 | 0.16 | 94 | 1013.2 |
| 20260904035540 | 81 | 12 | 0.0 | 0.0 | 0.00 | 0.16 | 0.16 | 94 | 1013.2 |
| 20260904035037 | 81 | 12 | 0.0 | 0.0 | 0.00 | 0.16 | 0.16 | 94 | 1013.2 |
| 20260904034533 | 81 | 12 | 0.0 | 0.0 | 0.00 | 0.16 | 0.16 | 94 | 1013.2 |
| 20260904033928 | 81 | 12 | 0.0 | 0.0 | 0.00 | 0.16 | 0.16 | 94 | 1013.5 |
| 20260904033425 | 81 | 12 | 0.0 | 0.0 | 0.00 | 0.16 | 0.16 | 94 | 1013.5 |
| 20260904032922 | 81 | 12 | 0.0 | 0.0 | 0.00 | 0.16 | 0.16 | 94 | 1013.2 |
| 20260904032419 | 81 | 12 | 0.0 | 0.0 | 0.00 | 0.16 | 0.16 | 94 | 1013.2 |
| 20260904031917 | 81 | 12 | 0.0 | 0.0 | 0.00 | 0.16 | 0.16 | 94 | 1013.5 |
| 20260904031413 | 81 | 12 | 0.0 | 0.0 | 0.00 | 0.16 | 0.16 | 94 | 1013.5 |
| 20260904030910 | 81 | 12 | 0.0 | 0.0 | 0.00 | 0.16 | 0.16 | 94 | 1013.5 |
| 20260904030407 | 81 | 12 | 0.0 | 0.0 | 0.00 | 0.16 | 0.16 | 93 | 1013.5 |
| 20260904025904 | 81 | 12 | 0.0 | 0.0 | 0.00 | 0.16 | 0.16 | 93 | 1013.5 |
| 20260904025401 | 81 | 13 | 0.0 | 0.0 | 0.00 | 0.16 | 0.16 | 93 | 1013.5 |
| 20260904024858 | 81 | 12 | 0.0 | 0.0 | 0.00 | 0.16 | 0.16 | 93 | 1013.5 |
| 20260904024355 | 81 | 12 | 0.0 | 0.0 | 0.00 | 0.16 | 0.16 | 93 | 1013.5 |
| 20260904023821 | 81 | 12 | 0.0 | 0.0 | 0.00 | 0.16 | 0.16 | 93 | 1013.2 |
| 20260904023318 | 81 | 12 | 0.0 | 0.0 | 0.00 | 0.16 | 0.16 | 93 | 1013.2 |
| 20260904022815 | 81 | 12 | 0.0 | 0.0 | 0.00 | 0.16 | 0.16 | 93 | 1013.2 |
| 20260904022312 | 81 | 12 | 0.0 | 0.0 | 0.00 | 0.16 | 0.16 | 93 | 1013.2 |
| 20260904021809 | 81 | 12 | 0.0 | 0.0 | 0.00 | 0.16 | 0.16 | 93 | 1012.9 |
| 20260904021235 | 81 | 13 | 0.0 | 0.0 | 0.00 | 0.16 | 0.16 | 93 | 1012.9 |
| 20260904020718 | 81 | 5 | 0.0 | 0.0 | 0.00 | 0.16 | 0.16 | 93 | 1012.9 |
| 20260904020215 | 81 | 5 | 0.0 | 0.0 | 0.00 | 0.16 | 0.16 | 93 | 1012.9 |
| 20260904015654 | 81 | 5 | 0.0 | 0.0 | 0.00 | 0.16 | 0.16 | 93 | 1012.9 |
| 20260904015119 | 81 | 5 | 0.0 | 0.0 | 0.00 | 0.16 | 0.16 | 93 | 1012.9 |
| 20260904014616 | 81 | 5 | 0.0 | 0.0 | 0.00 | 0.16 | 0.16 | 93 | 1012.9 |
| 20260904014113 | 81 | 5 | 0.0 | 0.0 | 0.00 | 0.16 | 0.16 | 93 | 1012.5 |
| 20260904013610 | 81 | 5 | 0.0 | 0.0 | 0.00 | 0.16 | 0.16 | 93 | 1012.5 |
| 20260904013107 | 81 | 5 | 0.0 | 0.0 | 0.00 | 0.16 | 0.16 | 93 | 1012.5 |
| 20260904012604 | 81 | 5 | 0.0 | 0.0 | 0.00 | 0.16 | 0.16 | 93 | 1012.5 |
| 20260904012101 | 81 | 5 | 0.0 | 0.0 | 0.00 | 0.16 | 0.16 | 93 | 1012.5 |
| 20260904011558 | 81 | 5 | 0.0 | 0.0 | 0.00 | 0.16 | 0.16 | 93 | 1012.5 |
| 20260904011056 | 81 | 5 | 0.0 | 0.0 | 0.00 | 0.16 | 0.16 | 93 | 1012.5 |
| 20260904010534 | 81 | 5 | 0.0 | 0.9 | 0.00 | 0.16 | 0.16 | 93 | 1012.5 |
| 20260904010031 | 81 | 5 | 0.0 | 0.9 | 0.00 | 0.16 | 0.16 | 93 | 1012.5 |
| 20260904005528 | 81 | 5 | 0.0 | 1.7 | 0.00 | 0.16 | 0.16 | 93 | 1012.5 |
| 20260904004952 | 82 | 5 | 0.0 | 1.7 | 0.00 | 0.16 | 0.16 | 93 | 1012.5 |
| 20260904004449 | 82 | 5 | 0.0 | 1.7 | 0.00 | 0.16 | 0.16 | 93 | 1012.2 |
| 20260904003946 | 82 | 5 | 0.9 | 1.7 | 0.00 | 0.16 | 0.16 | 93 | 1012.5 |
| 20260904003444 | 82 | 5 | 0.0 | 1.7 | 0.00 | 0.16 | 0.16 | 93 | 1012.5 |
| 20260904002914 | 82 | 5 | 0.0 | 1.7 | 0.00 | 0.16 | 0.16 | 93 | 1012.5 |
| 20260904002411 | 82 | 5 | 0.0 | 1.7 | 0.00 | 0.16 | 0.16 | 93 | 1012.5 |
| 20260904001908 | 82 | 5 | 0.0 | 1.7 | 0.00 | 0.16 | 0.16 | 92 | 1012.5 |
| 20260904001405 | 82 | 5 | 0.0 | 1.7 | 0.00 | 0.16 | 0.16 | 93 | 1012.5 |
| 20260904000902 | 82 | 5 | 0.9 | 1.7 | 0.00 | 0.16 | 0.16 | 93 | 1012.5 |
| 20260904000359 | 82 | 5 | 0.0 | 1.7 | 0.00 | 0.16 | 0.16 | 93 | 1012.5 |
| 20260903235856 | 82 | 5 | 0.9 | 2.6 | 0.00 | 0.16 | 0.16 | 92 | 1012.5 |
| 20260903235351 | 82 | 25 | 0.0 | 2.6 | 0.00 | 0.16 | 0.16 | 92 | 1012.5 |
| 20260903234847 | 82 | 25 | 0.9 | 2.6 | 0.00 | 0.16 | 0.16 | 92 | 1012.5 |
| 20260903234344 | 83 | 323 | 0.9 | 2.6 | 0.00 | 0.16 | 0.16 | 93 | 1012.5 |
| 20260903233841 | 83 | 338 | 0.9 | 2.6 | 0.00 | 0.16 | 0.16 | 92 | 1012.5 |
| 20260903233307 | 83 | 338 | 0.9 | 2.6 | 0.00 | 0.16 | 0.16 | 92 | 1012.5 |
| 20260903232803 | 82 | 267 | 0.9 | 2.6 | 0.00 | 0.16 | 0.16 | 92 | 1012.5 |
| 20260903232228 | 82 | 97 | 0.9 | 2.6 | 0.00 | 0.16 | 0.16 | 92 | 1012.5 |
| 20260903231725 | 83 | 8 | 0.9 | 1.7 | 0.00 | 0.16 | 0.16 | 92 | 1012.2 |
| 20260903231151 | 83 | 360 | 0.0 | 0.0 | 0.00 | 0.16 | 0.16 | 93 | 1012.5 |
| 20260903230648 | 83 | 42 | 0.0 | 0.0 | 0.00 | 0.16 | 0.16 | 93 | 1012.5 |
| 20260903230124 | 83 | 300 | 0.0 | 0.0 | 0.00 | 0.16 | 0.16 | 92 | 1012.5 |
| 20260903225547 | 83 | 300 | 0.0 | 0.0 | 0.00 | 0.16 | 0.16 | 92 | 1012.5 |
| 20260903225044 | 83 | 355 | 0.0 | 0.0 | 0.00 | 0.16 | 0.16 | 92 | 1012.5 |
| 20260903224541 | 83 | 355 | 0.0 | 0.0 | 0.00 | 0.16 | 0.16 | 92 | 1012.5 |
| 20260903224038 | 83 | 109 | 0.0 | 0.0 | 0.00 | 0.16 | 0.16 | 92 | 1012.5 |
| 20260903223535 | 83 | 109 | 0.0 | 1.7 | 0.00 | 0.16 | 0.16 | 92 | 1012.9 |
| 20260903223032 | 83 | 355 | 0.0 | 2.6 | 0.00 | 0.16 | 0.16 | 92 | 1012.9 |
| 20260903222441 | 84 | 360 | 0.0 | 3.5 | 0.00 | 0.16 | 0.16 | 92 | 1012.9 |
| 20260903221938 | 84 | 112 | 1.7 | 4.3 | 0.00 | 0.16 | 0.16 | 92 | 1012.9 |
| 20260903221435 | 84 | 62 | 0.9 | 4.3 | 0.00 | 0.16 | 0.16 | 92 | 1012.9 |
| 20260903220933 | 83 | 77 | 1.7 | 4.3 | 0.00 | 0.16 | 0.16 | 92 | 1012.9 |
| 20260903220411 | 83 | 75 | 1.7 | 4.3 | 0.00 | 0.16 | 0.16 | 92 | 1012.9 |
| 20260903215908 | 83 | 61 | 0.9 | 3.5 | 0.00 | 0.16 | 0.16 | 92 | 1012.9 |
| 20260903215404 | 83 | 70 | 1.7 | 3.5 | 0.00 | 0.16 | 0.16 | 92 | 1012.9 |
| 20260903214901 | 83 | 79 | 1.7 | 3.5 | 0.00 | 0.16 | 0.16 | 92 | 1013.2 |
| 20260903214326 | 83 | 88 | 0.9 | 1.7 | 0.00 | 0.16 | 0.16 | 93 | 1013.2 |
| 20260903213823 | 83 | 88 | 0.9 | 1.7 | 0.00 | 0.16 | 0.16 | 93 | 1013.5 |
| 20260903213249 | 83 | 50 | 0.9 | 2.6 | 0.00 | 0.16 | 0.16 | 92 | 1013.5 |
| 20260903212209 | 83 | 92 | 0.0 | 2.6 | 0.00 | 0.16 | 0.16 | 92 | 1013.5 |
| 20260903211706 | 83 | 66 | 0.9 | 2.6 | 0.00 | 0.16 | 0.16 | 92 | 1013.5 |
| 20260903211159 | 83 | 74 | 1.7 | 2.6 | 0.01 | 0.16 | 0.16 | 92 | 1013.5 |
| 20260903210656 | 83 | 56 | 0.9 | 2.6 | 0.02 | 0.16 | 0.16 | 92 | 1013.5 |